KPNO PMTC Data


Display last 80 lines of pmtc.log
This page should refresh every five minutes.
 
All temperatures in Centigrade

                                   Probe    Dew                                                                                                                                                                                                    Set  Flow 
    Date   Time             Humid    Amb   Point    NIB   EIB   SIB   WIB   NOB   EOB   SOB   WOB   NIT   EIT   SIT   WIT   NOT   EOT   SOT   WOT   STS   MHS   MHW   COS   COW   CIB   CIM   CIT   DBS   TSB   TSM   TST   HXI   HXO   HXA   HXD Point Rate   NTT   ETT   WTT   STT   NTB   ETB   WTB   STB   TRS   TRW   CSI   CSO   PCI   PCO   CCI   CCO

Tue Jun 19 10:29:07 2018 H 22.3 P 23.467 D 99.2 999.0 999.0 999.0 999.0 999.0 999.0 999.0 999.0 19.0 18.9 19.0 19.0 19.1 19.0 18.8 19.0 999.0 999.0 999.0 999.0 999.0 999.0 999.0 999.0 999.0 999.0 999.0 999.0 999.0 999.0 999.0 999.0 9.5 999.0 1.0 2.0 3.0 4.0 5.0 6.0 7.0 8.0 9.0 10.0 11.0 12.0 13.0 14.0 15.0 16.0 
Tue Jun 19 10:34:08 2018 H 22.0 P 23.433 D 99.2 999.0 999.0 999.0 999.0 999.0 999.0 999.0 999.0 19.0 18.9 18.9 18.9 19.0 18.9 18.8 19.0 999.0 999.0 999.0 999.0 999.0 999.0 999.0 999.0 999.0 999.0 999.0 999.0 999.0 999.0 999.0 999.0 9.5 999.0 1.0 2.0 3.0 4.0 5.0 6.0 7.0 8.0 9.0 10.0 11.0 12.0 13.0 14.0 15.0 16.0 
Tue Jun 19 10:39:08 2018 H 23.5 P 22.883 D 99.2 999.0 999.0 999.0 999.0 999.0 999.0 999.0 999.0 18.9 18.8 18.9 18.9 19.0 18.9 18.9 18.9 999.0 999.0 999.0 999.0 999.0 999.0 999.0 999.0 999.0 999.0 999.0 999.0 999.0 999.0 999.0 999.0 9.5 999.0 1.0 2.0 3.0 4.0 5.0 6.0 7.0 8.0 9.0 10.0 11.0 12.0 13.0 14.0 15.0 16.0 
Tue Jun 19 10:44:08 2018 H 23.1 P 22.817 D 99.2 999.0 999.0 999.0 999.0 999.0 999.0 999.0 999.0 18.9 18.9 18.8 18.9 19.1 19.0 18.9 18.9 999.0 999.0 999.0 999.0 999.0 999.0 999.0 999.0 999.0 999.0 999.0 999.0 999.0 999.0 999.0 999.0 9.5 999.0 1.0 2.0 3.0 4.0 5.0 6.0 7.0 8.0 9.0 10.0 11.0 12.0 13.0 14.0 15.0 16.0 
Tue Jun 19 10:49:08 2018 H 22.8 P 22.983 D 99.2 999.0 999.0 999.0 999.0 999.0 8.4 999.0 999.0 18.9 18.9 18.8 18.9 19.0 18.8 18.8 18.8 999.0 999.0 999.0 999.0 999.0 999.0 999.0 999.0 999.0 999.0 999.0 999.0 4.0 999.0 999.0 999.0 9.5 999.0 1.0 2.0 3.0 4.0 5.0 6.0 7.0 8.0 9.0 10.0 11.0 12.0 13.0 14.0 15.0 16.0 
Tue Jun 19 10:54:08 2018 H 22.5 P 23.200 D 99.2 999.0 999.0 999.0 999.0 999.0 999.0 999.0 999.0 18.9 18.8 18.9 18.9 19.0 18.9 18.8 18.9 999.0 999.0 999.0 999.0 999.0 999.0 999.0 999.0 999.0 999.0 999.0 999.0 7.9 999.0 999.0 999.0 9.5 999.0 1.0 2.0 3.0 4.0 5.0 6.0 7.0 8.0 9.0 10.0 11.0 12.0 13.0 14.0 15.0 16.0 
Tue Jun 19 10:59:09 2018 H 23.5 P 23.400 D 99.2 999.0 999.0 999.0 999.0 999.0 999.0 999.0 999.0 19.0 18.9 19.0 18.9 19.0 19.0 18.9 19.0 999.0 999.0 999.0 999.0 999.0 999.0 999.0 999.0 999.0 999.0 999.0 999.0 999.0 999.0 999.0 999.0 9.5 999.0 1.0 2.0 3.0 4.0 5.0 6.0 7.0 8.0 9.0 10.0 11.0 12.0 13.0 14.0 15.0 16.0 
Tue Jun 19 11:04:09 2018 H 22.3 P 23.317 D 99.2 999.0 999.0 999.0 999.0 999.0 8.4 999.0 999.0 18.9 18.9 19.0 19.0 19.1 19.0 18.9 19.0 999.0 999.0 999.0 999.0 999.0 999.0 999.0 999.0 999.0 999.0 999.0 999.0 4.0 999.0 999.0 999.0 9.5 999.0 1.0 2.0 3.0 4.0 5.0 6.0 7.0 8.0 9.0 10.0 11.0 12.0 13.0 14.0 15.0 16.0 
Tue Jun 19 11:09:09 2018 H 22.4 P 23.350 D 99.2 999.0 999.0 999.0 999.0 999.0 999.0 999.0 999.0 18.9 18.8 18.9 18.9 19.0 18.9 18.8 19.1 999.0 999.0 999.0 999.0 999.0 999.0 999.0 999.0 999.0 999.0 999.0 999.0 7.9 999.0 999.0 999.0 9.5 999.0 1.0 2.0 3.0 4.0 5.0 6.0 7.0 8.0 9.0 10.0 11.0 12.0 13.0 14.0 15.0 16.0 
Tue Jun 19 11:14:09 2018 H 22.6 P 23.867 D 99.2 999.0 999.0 999.0 999.0 999.0 999.0 999.0 999.0 19.0 18.9 18.9 18.9 19.1 19.1 18.9 19.0 999.0 999.0 999.0 999.0 999.0 999.0 999.0 999.0 999.0 999.0 999.0 999.0 999.0 999.0 999.0 999.0 9.5 999.0 1.0 2.0 3.0 4.0 5.0 6.0 7.0 8.0 9.0 10.0 11.0 12.0 13.0 14.0 15.0 16.0 
Tue Jun 19 11:19:09 2018 H 22.4 P 24.250 D 99.2 999.0 999.0 999.0 999.0 999.0 999.0 999.0 999.0 18.8 18.9 18.8 18.9 19.0 18.9 19.0 18.9 999.0 999.0 999.0 999.0 999.0 999.0 999.0 999.0 999.0 999.0 999.0 999.0 999.0 999.0 999.0 999.0 9.5 999.0 1.0 2.0 3.0 4.0 5.0 6.0 7.0 8.0 9.0 10.0 11.0 12.0 13.0 14.0 15.0 16.0 
Tue Jun 19 11:24:09 2018 H 22.2 P 24.333 D 99.2 999.0 999.0 999.0 999.0 999.0 999.0 999.0 999.0 18.9 19.0 18.9 19.0 19.2 19.0 19.0 19.1 999.0 999.0 999.0 999.0 999.0 999.0 999.0 999.0 999.0 999.0 999.0 999.0 999.0 999.0 999.0 999.0 9.5 999.0 1.0 2.0 3.0 4.0 5.0 6.0 7.0 8.0 9.0 10.0 11.0 12.0 13.0 14.0 15.0 16.0 
Tue Jun 19 11:29:10 2018 H 22.5 P 23.717 D 99.2 999.0 999.0 999.0 999.0 999.0 999.0 999.0 999.0 19.0 19.0 19.1 19.0 19.2 19.0 19.0 19.1 999.0 999.0 999.0 999.0 999.0 999.0 999.0 999.0 999.0 8.4 999.0 999.0 999.0 999.0 999.0 999.0 9.5 999.0 1.0 2.0 3.0 4.0 5.0 6.0 7.0 8.0 9.0 10.0 11.0 12.0 13.0 14.0 15.0 16.0 
Tue Jun 19 11:34:10 2018 H 22.5 P 24.050 D 99.2 999.0 999.0 999.0 999.0 999.0 999.0 999.0 999.0 19.1 18.9 19.0 19.0 19.1 19.1 19.0 19.0 999.0 999.0 999.0 999.0 999.0 999.0 999.0 999.0 999.0 999.0 999.0 999.0 999.0 999.0 999.0 999.0 9.5 999.0 1.0 2.0 3.0 4.0 5.0 6.0 7.0 8.0 9.0 10.0 11.0 12.0 13.0 14.0 15.0 16.0 
Tue Jun 19 11:39:10 2018 H 22.4 P 23.950 D 99.2 999.0 999.0 999.0 999.0 999.0 999.0 999.0 999.0 19.1 19.0 19.0 19.1 19.2 19.0 19.0 19.0 999.0 999.0 999.0 999.0 999.0 999.0 999.0 999.0 999.0 999.0 999.0 999.0 999.0 999.0 999.0 999.0 9.5 999.0 1.0 2.0 3.0 4.0 5.0 6.0 7.0 8.0 9.0 10.0 11.0 12.0 13.0 14.0 15.0 16.0 
Tue Jun 19 11:44:10 2018 H 22.5 P 24.400 D 99.2 999.0 999.0 999.0 999.0 999.0 999.0 999.0 999.0 19.1 18.9 19.1 18.9 19.1 19.1 19.0 19.1 999.0 999.0 999.0 999.0 999.0 999.0 999.0 999.0 999.0 8.4 999.0 999.0 999.0 999.0 999.0 999.0 9.5 999.0 1.0 2.0 3.0 4.0 5.0 6.0 7.0 8.0 9.0 10.0 11.0 12.0 13.0 14.0 15.0 16.0 
Tue Jun 19 11:49:10 2018 H 21.9 P 24.667 D 99.2 999.0 999.0 999.0 999.0 999.0 999.0 999.0 999.0 19.1 19.0 19.0 19.0 19.1 19.0 19.1 19.1 999.0 999.0 999.0 999.0 999.0 999.0 999.0 999.0 999.0 999.0 999.0 999.0 999.0 999.0 999.0 999.0 9.5 999.0 1.0 2.0 3.0 4.0 5.0 6.0 7.0 8.0 9.0 10.0 11.0 12.0 13.0 14.0 15.0 16.0 
Tue Jun 19 11:54:10 2018 H 21.9 P 24.500 D 99.2 999.0 999.0 999.0 999.0 999.0 999.0 999.0 999.0 19.0 18.9 19.0 19.0 19.0 19.0 19.0 19.1 999.0 999.0 999.0 999.0 999.0 999.0 999.0 999.0 999.0 999.0 999.0 999.0 999.0 999.0 999.0 999.0 9.5 999.0 1.0 2.0 3.0 4.0 5.0 6.0 7.0 8.0 9.0 10.0 11.0 12.0 13.0 14.0 15.0 16.0 
Tue Jun 19 11:59:11 2018 H 22.2 P 24.200 D 99.2 999.0 999.0 999.0 999.0 999.0 999.0 999.0 999.0 19.0 18.9 19.0 19.0 19.1 19.1 19.0 19.0 999.0 999.0 999.0 999.0 98.5 999.0 999.0 999.0 999.0 999.0 999.0 999.0 999.0 999.0 999.0 999.0 9.5 999.0 1.0 2.0 3.0 4.0 5.0 6.0 7.0 8.0 9.0 10.0 11.0 12.0 13.0 14.0 15.0 16.0 
Tue Jun 19 12:04:11 2018 H 22.2 P 24.533 D 99.2 999.0 999.0 999.0 999.0 999.0 999.0 999.0 999.0 19.1 19.0 19.0 19.0 19.1 19.0 19.0 19.1 999.0 999.0 999.0 999.0 3.9 999.0 999.0 999.0 999.0 999.0 999.0 999.0 999.0 999.0 999.0 999.0 9.5 999.0 1.0 2.0 3.0 4.0 5.0 6.0 7.0 8.0 9.0 10.0 11.0 12.0 13.0 14.0 15.0 16.0 
Tue Jun 19 12:09:11 2018 H 21.9 P 24.550 D 99.2 999.0 999.0 999.0 999.0 999.0 999.0 999.0 999.0 19.0 19.0 19.0 19.0 19.1 19.1 19.1 19.1 999.0 999.0 999.0 999.0 3.3 999.0 999.0 999.0 999.0 999.0 999.0 999.0 999.0 999.0 999.0 999.0 9.5 999.0 1.0 2.0 3.0 4.0 5.0 6.0 7.0 8.0 9.0 10.0 11.0 12.0 13.0 14.0 15.0 16.0 
Tue Jun 19 12:14:11 2018 H 21.6 P 24.367 D 99.2 999.0 999.0 999.0 999.0 999.0 999.0 999.0 999.0 19.0 19.0 18.9 19.0 19.1 19.0 19.0 19.0 999.0 999.0 999.0 999.0 999.0 999.0 999.0 999.0 999.0 999.0 999.0 999.0 999.0 999.0 999.0 999.0 9.5 999.0 1.0 2.0 3.0 4.0 5.0 6.0 7.0 8.0 9.0 10.0 11.0 12.0 13.0 14.0 15.0 16.0 
Tue Jun 19 12:19:11 2018 H 21.2 P 24.200 D 99.2 999.0 999.0 999.0 999.0 999.0 999.0 999.0 999.0 18.9 19.0 18.9 19.0 19.1 19.1 19.0 19.1 999.0 999.0 999.0 999.0 999.0 999.0 999.0 999.0 999.0 999.0 999.0 999.0 999.0 999.0 999.0 999.0 9.5 999.0 1.0 2.0 3.0 4.0 5.0 6.0 7.0 8.0 9.0 10.0 11.0 12.0 13.0 14.0 15.0 16.0 
Tue Jun 19 12:24:11 2018 H 21.5 P 24.517 D 99.2 999.0 999.0 999.0 999.0 999.0 999.0 999.0 999.0 19.1 19.1 19.1 19.2 19.3 19.2 19.0 19.2 999.0 999.0 999.0 999.0 999.0 999.0 999.0 999.0 999.0 999.0 999.0 999.0 999.0 999.0 999.0 999.0 9.5 999.0 1.0 2.0 3.0 4.0 5.0 6.0 7.0 8.0 9.0 10.0 11.0 12.0 13.0 14.0 15.0 16.0 
Tue Jun 19 12:29:12 2018 H 21.5 P 24.700 D 99.2 999.0 999.0 999.0 999.0 999.0 999.0 999.0 999.0 19.2 19.2 19.1 19.1 19.3 19.2 19.1 19.2 999.0 999.0 999.0 999.0 999.0 999.0 999.0 999.0 999.0 999.0 999.0 999.0 999.0 999.0 999.0 999.0 9.5 999.0 1.0 2.0 3.0 4.0 5.0 6.0 7.0 8.0 9.0 10.0 11.0 12.0 13.0 14.0 15.0 16.0 
Tue Jun 19 12:34:12 2018 H 21.2 P 24.650 D 99.2 999.0 999.0 999.0 999.0 999.0 999.0 999.0 999.0 19.1 19.0 19.0 19.1 19.2 19.1 19.1 19.1 999.0 999.0 999.0 999.0 999.0 999.0 999.0 999.0 999.0 999.0 999.0 999.0 999.0 999.0 999.0 999.0 9.5 999.0 1.0 2.0 3.0 4.0 5.0 6.0 7.0 8.0 9.0 10.0 11.0 12.0 13.0 14.0 15.0 16.0 
Tue Jun 19 12:39:12 2018 H 21.0 P 24.950 D 99.2 999.0 999.0 999.0 999.0 999.0 999.0 999.0 999.0 19.1 19.1 19.1 19.1 19.2 19.1 19.0 19.2 999.0 999.0 999.0 999.0 999.0 999.0 999.0 999.0 999.0 999.0 999.0 999.0 999.0 999.0 999.0 999.0 9.5 999.0 1.0 2.0 3.0 4.0 5.0 6.0 7.0 8.0 9.0 10.0 11.0 12.0 13.0 14.0 15.0 16.0 
Tue Jun 19 12:44:12 2018 H 20.7 P 25.017 D 99.2 999.0 999.0 999.0 999.0 999.0 999.0 999.0 999.0 19.1 19.2 19.2 19.1 19.3 19.2 19.2 19.1 999.0 999.0 999.0 999.0 999.0 999.0 999.0 999.0 999.0 999.0 999.0 999.0 999.0 999.0 999.0 999.0 9.5 999.0 1.0 2.0 3.0 4.0 5.0 6.0 7.0 8.0 9.0 10.0 11.0 12.0 13.0 14.0 15.0 16.0 
Tue Jun 19 12:49:12 2018 H 20.9 P 25.583 D 99.2 999.0 999.0 999.0 999.0 999.0 999.0 999.0 999.0 19.3 19.2 19.2 19.2 19.3 19.3 19.2 19.2 999.0 2.7 999.0 999.0 999.0 999.0 999.0 999.0 999.0 999.0 999.0 999.0 999.0 999.0 999.0 999.0 9.5 999.0 1.0 2.0 3.0 4.0 5.0 6.0 7.0 8.0 9.0 10.0 11.0 12.0 13.0 14.0 15.0 16.0 
Tue Jun 19 12:54:12 2018 H 20.5 P 25.683 D 99.2 999.0 999.0 999.0 999.0 999.0 999.0 999.0 999.0 19.3 19.2 19.1 19.2 19.3 19.2 19.2 19.3 999.0 999.0 999.0 999.0 999.0 999.0 999.0 999.0 999.0 999.0 999.0 999.0 999.0 999.0 999.0 999.0 9.5 999.0 1.0 2.0 3.0 4.0 5.0 6.0 7.0 8.0 9.0 10.0 11.0 12.0 13.0 14.0 15.0 16.0 
Tue Jun 19 12:59:13 2018 H 20.4 P 25.900 D 99.2 999.0 999.0 999.0 999.0 999.0 999.0 999.0 999.0 19.3 19.3 19.2 19.2 19.3 19.3 19.2 19.3 999.0 1.8 999.0 999.0 999.0 999.0 999.0 999.0 999.0 999.0 999.0 999.0 89.2 999.0 999.0 999.0 9.5 999.0 1.0 2.0 3.0 4.0 5.0 6.0 7.0 8.0 9.0 10.0 11.0 12.0 13.0 14.0 15.0 16.0 
Tue Jun 19 13:04:13 2018 H 19.4 P 25.667 D 99.2 999.0 999.0 999.0 999.0 999.0 999.0 999.0 999.0 19.4 19.4 19.3 19.3 19.3 19.3 19.3 19.3 999.0 999.0 999.0 999.0 999.0 999.0 999.0 999.0 999.0 999.0 999.0 999.0 999.0 999.0 999.0 999.0 9.5 999.0 1.0 2.0 3.0 4.0 5.0 6.0 7.0 8.0 9.0 10.0 11.0 12.0 13.0 14.0 15.0 16.0 
Tue Jun 19 13:09:13 2018 H 19.4 P 25.717 D 99.2 999.0 999.0 999.0 999.0 999.0 999.0 999.0 999.0 19.2 19.2 19.2 19.2 19.4 19.3 19.2 19.2 999.0 999.0 999.0 999.0 999.0 999.0 999.0 999.0 999.0 999.0 999.0 999.0 999.0 999.0 999.0 999.0 9.5 999.0 1.0 2.0 3.0 4.0 5.0 6.0 7.0 8.0 9.0 10.0 11.0 12.0 13.0 14.0 15.0 16.0 
Tue Jun 19 13:14:13 2018 H 18.9 P 25.617 D 99.2 999.0 999.0 999.0 999.0 999.0 999.0 999.0 999.0 19.3 19.3 19.4 19.4 19.4 19.4 19.4 19.4 999.0 1.8 999.0 999.0 999.0 999.0 999.0 999.0 999.0 999.0 999.0 999.0 7.8 999.0 999.0 999.0 9.5 999.0 1.0 2.0 3.0 4.0 5.0 6.0 7.0 8.0 9.0 10.0 11.0 12.0 13.0 14.0 15.0 16.0 
Tue Jun 19 13:19:13 2018 H 19.1 P 26.150 D 99.2 999.0 999.0 999.0 999.0 999.0 999.0 999.0 999.0 19.3 19.3 19.4 19.3 19.5 19.4 19.4 19.3 999.0 999.0 999.0 999.0 999.0 999.0 999.0 999.0 999.0 999.0 999.0 999.0 999.0 999.0 999.0 999.0 9.5 999.0 1.0 2.0 3.0 4.0 5.0 6.0 7.0 8.0 9.0 10.0 11.0 12.0 13.0 14.0 15.0 16.0 
Tue Jun 19 13:24:13 2018 H 19.3 P 26.550 D 99.2 999.0 999.0 999.0 999.0 999.0 999.0 999.0 999.0 19.3 19.3 19.4 19.3 19.4 19.4 19.4 19.3 999.0 1.8 999.0 999.0 999.0 999.0 999.0 999.0 999.0 999.0 999.0 999.0 89.2 999.0 999.0 999.0 9.5 999.0 1.0 2.0 3.0 4.0 5.0 6.0 7.0 8.0 9.0 10.0 11.0 12.0 13.0 14.0 15.0 16.0 
Tue Jun 19 13:29:14 2018 H 18.3 P 26.883 D 99.2 999.0 999.0 999.0 999.0 999.0 999.0 999.0 999.0 19.5 19.4 19.3 19.4 19.4 19.3 19.3 19.4 999.0 999.0 999.0 999.0 999.0 999.0 999.0 999.0 999.0 999.0 999.0 999.0 999.0 999.0 999.0 999.0 9.5 999.0 1.0 2.0 3.0 4.0 5.0 6.0 7.0 8.0 9.0 10.0 11.0 12.0 13.0 14.0 15.0 16.0 
Tue Jun 19 13:34:14 2018 H 18.2 P 26.883 D 99.2 999.0 999.0 999.0 999.0 999.0 999.0 999.0 999.0 19.5 19.5 19.4 19.6 19.6 19.6 19.4 19.5 999.0 999.0 999.0 999.0 999.0 999.0 999.0 999.0 999.0 999.0 999.0 999.0 999.0 999.0 999.0 999.0 9.5 999.0 1.0 2.0 3.0 4.0 5.0 6.0 7.0 8.0 9.0 10.0 11.0 12.0 13.0 14.0 15.0 16.0 
Tue Jun 19 13:39:14 2018 H 18.0 P 27.800 D 99.2 999.0 999.0 999.0 999.0 999.0 999.0 999.0 999.0 19.4 19.4 19.4 19.4 19.4 19.5 19.4 19.5 999.0 999.0 999.0 999.0 999.0 999.0 999.0 999.0 999.0 999.0 999.0 999.0 7.8 999.0 999.0 999.0 9.5 999.0 1.0 2.0 3.0 4.0 5.0 6.0 7.0 8.0 9.0 10.0 11.0 12.0 13.0 14.0 15.0 16.0 
Tue Jun 19 13:44:14 2018 H 17.8 P 27.900 D 99.2 999.0 999.0 999.0 999.0 999.0 999.0 999.0 999.0 19.6 19.4 19.4 19.4 19.4 19.5 19.5 19.5 999.0 999.0 999.0 999.0 999.0 999.0 999.0 999.0 999.0 999.0 999.0 999.0 999.0 999.0 999.0 999.0 9.5 999.0 1.0 2.0 3.0 4.0 5.0 6.0 7.0 8.0 9.0 10.0 11.0 12.0 13.0 14.0 15.0 16.0 
Tue Jun 19 13:49:14 2018 H 17.5 P 27.800 D 99.2 999.0 999.0 999.0 999.0 999.0 999.0 999.0 999.0 19.4 19.4 19.3 19.3 19.5 19.4 19.3 19.4 999.0 999.0 999.0 999.0 999.0 999.0 999.0 999.0 999.0 999.0 999.0 999.0 999.0 999.0 999.0 999.0 9.5 999.0 1.0 2.0 3.0 4.0 5.0 6.0 7.0 8.0 9.0 10.0 11.0 12.0 13.0 14.0 15.0 16.0 
Tue Jun 19 13:54:15 2018 H 17.6 P 27.383 D 99.2 999.0 999.0 999.0 999.0 999.0 999.0 999.0 999.0 19.2 19.3 19.3 19.3 19.4 19.4 19.3 19.3 999.0 999.0 999.0 999.0 999.0 999.0 999.0 999.0 999.0 999.0 999.0 999.0 999.0 999.0 999.0 999.0 9.5 999.0 1.0 2.0 3.0 4.0 5.0 6.0 7.0 8.0 9.0 10.0 11.0 12.0 13.0 14.0 15.0 16.0 
Tue Jun 19 13:59:15 2018 H 18.7 P 26.867 D 99.2 999.0 999.0 999.0 999.0 999.0 999.0 999.0 999.0 19.3 19.3 19.2 19.3 19.5 19.3 19.3 19.3 999.0 999.0 999.0 999.0 999.0 999.0 999.0 999.0 999.0 999.0 999.0 999.0 999.0 999.0 999.0 999.0 9.5 999.0 1.0 2.0 3.0 4.0 5.0 6.0 7.0 8.0 9.0 10.0 11.0 12.0 13.0 14.0 15.0 16.0 
Tue Jun 19 14:04:15 2018 H 16.8 P 27.467 D 99.2 999.0 999.0 999.0 999.0 999.0 999.0 999.0 999.0 19.6 19.4 19.4 19.5 19.6 19.4 19.5 19.6 999.0 999.0 999.0 999.0 999.0 999.0 999.0 999.0 999.0 999.0 999.0 999.0 999.0 999.0 999.0 999.0 9.5 999.0 1.0 2.0 3.0 4.0 5.0 6.0 7.0 8.0 9.0 10.0 11.0 12.0 13.0 14.0 15.0 16.0 
Tue Jun 19 14:09:15 2018 H 17.1 P 27.550 D 99.2 999.0 999.0 999.0 999.0 999.0 999.0 999.0 999.0 19.5 19.4 19.5 19.4 19.6 19.5 19.4 19.4 999.0 999.0 999.0 999.0 999.0 999.0 999.0 999.0 999.0 999.0 999.0 999.0 999.0 999.0 999.0 999.0 9.5 999.0 1.0 2.0 3.0 4.0 5.0 6.0 7.0 8.0 9.0 10.0 11.0 12.0 13.0 14.0 15.0 16.0 
Tue Jun 19 14:14:15 2018 H 16.5 P 27.883 D 99.2 999.0 999.0 999.0 999.0 999.0 999.0 999.0 999.0 19.5 19.5 19.4 19.5 19.5 19.5 19.4 19.5 999.0 999.0 999.0 999.0 999.0 999.0 999.0 999.0 999.0 999.0 999.0 999.0 999.0 999.0 999.0 999.0 9.5 999.0 1.0 2.0 3.0 4.0 5.0 6.0 7.0 8.0 9.0 10.0 11.0 12.0 13.0 14.0 15.0 16.0 
Tue Jun 19 14:19:15 2018 H 16.2 P 28.450 D 99.2 999.0 999.0 999.0 999.0 999.0 999.0 999.0 999.0 19.4 19.4 19.4 19.4 19.6 19.4 19.4 19.5 999.0 999.0 999.0 999.0 999.0 999.0 999.0 999.0 999.0 999.0 999.0 999.0 999.0 999.0 999.0 999.0 9.5 999.0 1.0 2.0 3.0 4.0 5.0 6.0 7.0 8.0 9.0 10.0 11.0 12.0 13.0 14.0 15.0 16.0 
Tue Jun 19 14:24:16 2018 H 16.0 P 29.633 D 99.2 999.0 999.0 999.0 999.0 999.0 999.0 999.0 999.0 19.7 19.5 19.5 19.5 19.6 19.5 19.5 19.6 999.0 999.0 999.0 999.0 999.0 999.0 999.0 999.0 999.0 999.0 999.0 999.0 999.0 999.0 999.0 999.0 9.5 999.0 1.0 2.0 3.0 4.0 5.0 6.0 7.0 8.0 9.0 10.0 11.0 12.0 13.0 14.0 15.0 16.0 
Tue Jun 19 14:29:16 2018 H 16.2 P 29.650 D 99.2 999.0 999.0 999.0 999.0 999.0 999.0 999.0 999.0 19.5 19.5 19.5 19.5 19.6 19.5 19.4 19.5 999.0 999.0 999.0 999.0 999.0 999.0 999.0 999.0 999.0 999.0 999.0 999.0 999.0 999.0 999.0 999.0 9.5 999.0 1.0 2.0 3.0 4.0 5.0 6.0 7.0 8.0 9.0 10.0 11.0 12.0 13.0 14.0 15.0 16.0 
Tue Jun 19 14:34:16 2018 H 16.0 P 30.167 D 99.2 999.0 999.0 999.0 999.0 999.0 999.0 999.0 999.0 19.6 19.5 19.5 19.6 19.6 19.5 19.4 19.6 999.0 999.0 999.0 999.0 999.0 999.0 999.0 999.0 999.0 999.0 999.0 999.0 999.0 999.0 999.0 999.0 9.5 999.0 1.0 2.0 3.0 4.0 5.0 6.0 7.0 8.0 9.0 10.0 11.0 12.0 13.0 14.0 15.0 16.0 
Tue Jun 19 14:39:16 2018 H 16.3 P 30.150 D 99.2 999.0 999.0 999.0 999.0 999.0 999.0 999.0 999.0 19.5 19.5 19.5 19.5 19.6 19.5 19.5 19.6 999.0 999.0 999.0 999.0 999.0 999.0 999.0 999.0 999.0 999.0 999.0 999.0 999.0 999.0 999.0 999.0 9.5 999.0 1.0 2.0 3.0 4.0 5.0 6.0 7.0 8.0 9.0 10.0 11.0 12.0 13.0 14.0 15.0 16.0 
Tue Jun 19 14:44:16 2018 H 15.5 P 29.850 D 99.2 999.0 999.0 999.0 999.0 999.0 999.0 999.0 999.0 19.7 19.6 19.6 19.7 19.7 19.7 19.6 19.6 999.0 999.0 999.0 999.0 999.0 999.0 999.0 999.0 999.0 999.0 999.0 999.0 999.0 999.0 999.0 999.0 9.5 999.0 1.0 2.0 3.0 4.0 5.0 6.0 7.0 8.0 9.0 10.0 11.0 12.0 13.0 14.0 15.0 16.0 
Tue Jun 19 14:49:16 2018 H 15.8 P 28.800 D 99.2 999.0 999.0 999.0 999.0 999.0 999.0 999.0 999.0 19.7 19.7 19.6 19.7 19.8 19.7 19.6 19.7 999.0 999.0 999.0 999.0 999.0 999.0 999.0 999.0 999.0 999.0 999.0 999.0 999.0 999.0 999.0 999.0 9.5 999.0 1.0 2.0 3.0 4.0 5.0 6.0 7.0 8.0 9.0 10.0 11.0 12.0 13.0 14.0 15.0 16.0 
Tue Jun 19 14:54:17 2018 H 14.8 P 28.350 D 99.2 999.0 999.0 999.0 999.0 999.0 999.0 999.0 999.0 19.9 19.8 19.7 19.8 19.7 19.7 19.8 19.7 999.0 999.0 999.0 999.0 999.0 999.0 999.0 999.0 999.0 999.0 999.0 999.0 999.0 999.0 999.0 999.0 9.5 999.0 1.0 2.0 3.0 4.0 5.0 6.0 7.0 8.0 9.0 10.0 11.0 12.0 13.0 14.0 15.0 16.0 
Tue Jun 19 14:59:17 2018 H 15.0 P 28.450 D 99.2 999.0 999.0 999.0 999.0 999.0 999.0 999.0 999.0 19.7 19.7 19.7 19.7 19.7 19.7 19.7 19.8 999.0 999.0 999.0 999.0 999.0 999.0 999.0 999.0 999.0 999.0 999.0 999.0 999.0 999.0 999.0 999.0 9.5 999.0 1.0 2.0 3.0 4.0 5.0 6.0 7.0 8.0 9.0 10.0 11.0 12.0 13.0 14.0 15.0 16.0 
Tue Jun 19 15:04:17 2018 H 14.6 P 28.483 D 99.2 999.0 999.0 999.0 999.0 999.0 999.0 999.0 999.0 20.1 20.1 20.0 19.9 20.1 20.1 19.9 20.0 999.0 999.0 999.0 999.0 999.0 999.0 999.0 999.0 999.0 999.0 999.0 999.0 999.0 999.0 999.0 999.0 9.5 999.0 1.0 2.0 3.0 4.0 5.0 6.0 7.0 8.0 9.0 10.0 11.0 12.0 13.0 14.0 15.0 16.0 
Tue Jun 19 15:09:17 2018 H 14.6 P 28.317 D 99.2 999.0 999.0 999.0 999.0 999.0 999.0 999.0 999.0 19.9 19.9 19.8 19.9 20.0 20.0 20.0 20.0 999.0 999.0 999.0 999.0 999.0 999.0 999.0 999.0 999.0 999.0 999.0 999.0 999.0 999.0 999.0 999.0 9.5 999.0 1.0 2.0 3.0 4.0 5.0 6.0 7.0 8.0 9.0 10.0 11.0 12.0 13.0 14.0 15.0 16.0 
Tue Jun 19 15:14:17 2018 H 14.1 P 27.700 D 99.2 999.0 999.0 999.0 999.0 999.0 999.0 999.0 999.0 20.2 20.0 20.0 20.0 20.0 19.9 20.0 20.0 999.0 999.0 999.0 999.0 999.0 999.0 999.0 999.0 999.0 999.0 999.0 999.0 999.0 999.0 999.0 999.0 9.5 999.0 1.0 2.0 3.0 4.0 5.0 6.0 7.0 8.0 9.0 10.0 11.0 12.0 13.0 14.0 15.0 16.0 
Tue Jun 19 15:19:17 2018 H 14.5 P 28.183 D 99.2 999.0 999.0 999.0 999.0 999.0 999.0 999.0 999.0 19.7 19.7 19.7 19.7 19.9 19.8 19.7 19.8 999.0 999.0 999.0 999.0 999.0 999.0 999.0 999.0 999.0 999.0 999.0 999.0 999.0 999.0 999.0 999.0 9.5 999.0 1.0 2.0 3.0 4.0 5.0 6.0 7.0 8.0 9.0 10.0 11.0 12.0 13.0 14.0 15.0 16.0 
Tue Jun 19 15:24:18 2018 H 14.1 P 28.267 D 99.2 999.0 999.0 999.0 999.0 999.0 999.0 999.0 999.0 20.1 20.0 20.0 20.0 20.1 20.1 20.1 20.1 999.0 999.0 999.0 999.0 999.0 999.0 999.0 999.0 999.0 999.0 999.0 999.0 999.0 999.0 999.0 999.0 9.5 999.0 1.0 2.0 3.0 4.0 5.0 6.0 7.0 8.0 9.0 10.0 11.0 12.0 13.0 14.0 15.0 16.0 
Tue Jun 19 15:29:18 2018 H 14.2 P 28.300 D 99.2 999.0 999.0 999.0 999.0 999.0 999.0 999.0 999.0 20.0 20.0 20.0 20.0 20.1 20.0 20.0 20.1 999.0 999.0 999.0 999.0 999.0 999.0 999.0 999.0 999.0 999.0 999.0 999.0 -38.4 999.0 999.0 999.0 9.5 999.0 1.0 2.0 3.0 4.0 5.0 6.0 7.0 8.0 9.0 10.0 11.0 12.0 13.0 14.0 15.0 16.0 
Tue Jun 19 15:34:18 2018 H 13.5 P 27.967 D 99.2 999.0 999.0 999.0 999.0 999.0 999.0 999.0 999.0 20.3 20.2 20.1 20.1 20.2 20.1 20.2 20.2 999.0 999.0 999.0 999.0 999.0 999.0 999.0 999.0 999.0 999.0 999.0 999.0 999.0 999.0 999.0 999.0 9.5 999.0 1.0 2.0 3.0 4.0 5.0 6.0 7.0 8.0 9.0 10.0 11.0 12.0 13.0 14.0 15.0 16.0 
Tue Jun 19 15:39:18 2018 H 12.9 P 29.833 D 99.2 999.0 999.0 999.0 999.0 999.0 999.0 999.0 999.0 20.2 20.1 20.1 20.1 20.2 20.2 20.2 20.2 999.0 999.0 999.0 999.0 999.0 999.0 999.0 999.0 999.0 999.0 999.0 999.0 999.0 999.0 999.0 999.0 9.5 999.0 1.0 2.0 3.0 4.0 5.0 6.0 7.0 8.0 9.0 10.0 11.0 12.0 13.0 14.0 15.0 16.0 
Tue Jun 19 15:44:18 2018 H 13.2 P 29.633 D 99.2 999.0 999.0 999.0 999.0 999.0 999.0 999.0 999.0 20.2 20.1 20.2 20.2 20.2 20.2 20.2 20.2 999.0 999.0 999.0 999.0 999.0 999.0 999.0 999.0 999.0 999.0 999.0 999.0 8.0 999.0 999.0 999.0 9.5 999.0 1.0 2.0 3.0 4.0 5.0 6.0 7.0 8.0 9.0 10.0 11.0 12.0 13.0 14.0 15.0 16.0 
Tue Jun 19 15:49:18 2018 H 13.5 P 29.350 D 99.2 999.0 999.0 999.0 999.0 999.0 999.0 999.0 999.0 20.0 19.8 19.8 19.9 20.2 20.1 20.0 20.1 999.0 999.0 999.0 999.0 999.0 999.0 999.0 999.0 999.0 999.0 999.0 999.0 999.0 999.0 999.0 999.0 9.5 999.0 1.0 2.0 3.0 4.0 5.0 6.0 7.0 8.0 9.0 10.0 11.0 12.0 13.0 14.0 15.0 16.0 
Tue Jun 19 15:54:19 2018 H 13.8 P 28.983 D 99.2 999.0 999.0 999.0 999.0 999.0 8.4 999.0 999.0 20.0 20.0 20.0 20.0 20.1 20.0 20.0 20.1 999.0 999.0 999.0 999.0 999.0 999.0 999.0 999.0 999.0 999.0 999.0 999.0 999.0 999.0 999.0 999.0 9.5 999.0 1.0 2.0 3.0 4.0 5.0 6.0 7.0 8.0 9.0 10.0 11.0 12.0 13.0 14.0 15.0 16.0 
Tue Jun 19 15:59:19 2018 H 13.6 P 29.333 D 99.2 999.0 999.0 999.0 999.0 999.0 999.0 999.0 999.0 20.2 20.0 20.0 20.2 20.2 20.1 20.0 20.2 999.0 999.0 999.0 999.0 999.0 999.0 999.0 999.0 999.0 999.0 999.0 999.0 999.0 999.0 999.0 999.0 9.5 999.0 1.0 2.0 3.0 4.0 5.0 6.0 7.0 8.0 9.0 10.0 11.0 12.0 13.0 14.0 15.0 16.0 
Tue Jun 19 16:04:19 2018 H 13.7 P 28.367 D 99.2 999.0 999.0 999.0 999.0 999.0 999.0 999.0 999.0 20.7 20.4 20.3 20.4 20.4 20.4 20.4 20.4 999.0 999.0 999.0 999.0 999.0 999.0 999.0 999.0 999.0 8.4 999.0 999.0 999.0 999.0 999.0 999.0 9.5 999.0 1.0 2.0 3.0 4.0 5.0 6.0 7.0 8.0 9.0 10.0 11.0 12.0 13.0 14.0 15.0 16.0 
Tue Jun 19 16:09:19 2018 H 14.2 P 28.733 D 99.2 999.0 999.0 999.0 999.0 999.0 8.4 999.0 999.0 20.3 20.1 20.2 20.3 20.4 20.3 20.3 20.3 999.0 999.0 999.0 999.0 999.0 999.0 999.0 999.0 999.0 999.0 999.0 999.0 999.0 999.0 999.0 999.0 9.5 999.0 1.0 2.0 3.0 4.0 5.0 6.0 7.0 8.0 9.0 10.0 11.0 12.0 13.0 14.0 15.0 16.0 
Tue Jun 19 16:14:19 2018 H 15.2 P 27.767 D 99.2 999.0 999.0 999.0 999.0 999.0 999.0 999.0 999.0 19.9 19.9 19.9 19.9 20.1 20.0 19.9 20.1 999.0 999.0 999.0 999.0 999.0 999.0 999.0 999.0 999.0 999.0 999.0 999.0 999.0 999.0 999.0 999.0 9.5 999.0 1.0 2.0 3.0 4.0 5.0 6.0 7.0 8.0 9.0 10.0 11.0 12.0 13.0 14.0 15.0 16.0 
Tue Jun 19 16:19:19 2018 H 15.3 P 27.550 D 99.2 999.0 999.0 999.0 999.0 999.0 999.0 999.0 999.0 20.1 20.1 20.1 20.1 20.3 20.3 20.1 20.2 999.0 999.0 999.0 999.0 999.0 999.0 999.0 999.0 999.0 999.0 999.0 999.0 999.0 999.0 999.0 999.0 9.5 999.0 1.0 2.0 3.0 4.0 5.0 6.0 7.0 8.0 9.0 10.0 11.0 12.0 13.0 14.0 15.0 16.0 
Tue Jun 19 16:24:20 2018 H 15.3 P 27.200 D 99.2 999.0 999.0 999.0 999.0 999.0 999.0 999.0 999.0 20.0 20.1 20.0 20.1 20.2 20.1 20.2 20.2 999.0 999.0 999.0 999.0 999.0 999.0 999.0 999.0 999.0 999.0 999.0 999.0 999.0 999.0 999.0 999.0 9.5 999.0 1.0 2.0 3.0 4.0 5.0 6.0 7.0 8.0 9.0 10.0 11.0 12.0 13.0 14.0 15.0 16.0 
Tue Jun 19 16:29:20 2018 H 15.4 P 27.150 D 99.2 999.0 999.0 999.0 999.0 999.0 999.0 999.0 999.0 20.2 20.1 20.0 20.0 20.2 20.2 20.0 20.2 999.0 999.0 999.0 999.0 999.0 999.0 999.0 999.0 999.0 999.0 999.0 999.0 999.0 999.0 999.0 999.0 9.5 999.0 1.0 2.0 3.0 4.0 5.0 6.0 7.0 8.0 9.0 10.0 11.0 12.0 13.0 14.0 15.0 16.0 
Tue Jun 19 16:34:20 2018 H 15.3 P 27.200 D 99.2 999.0 999.0 999.0 999.0 999.0 999.0 999.0 999.0 20.1 20.0 20.0 20.0 20.2 20.2 20.1 20.2 999.0 999.0 999.0 999.0 999.0 999.0 999.0 999.0 999.0 999.0 999.0 999.0 999.0 999.0 999.0 999.0 9.5 999.0 1.0 2.0 3.0 4.0 5.0 6.0 7.0 8.0 9.0 10.0 11.0 12.0 13.0 14.0 15.0 16.0 
Tue Jun 19 16:39:20 2018 H 14.9 P 27.117 D 99.2 999.0 999.0 999.0 999.0 999.0 999.0 999.0 999.0 20.4 20.4 20.4 20.4 20.4 20.4 20.4 20.4 999.0 999.0 999.0 999.0 3.9 999.0 999.0 999.0 999.0 999.0 999.0 999.0 999.0 999.0 999.0 999.0 9.5 999.0 1.0 2.0 3.0 4.0 5.0 6.0 7.0 8.0 9.0 10.0 11.0 12.0 13.0 14.0 15.0 16.0 
Tue Jun 19 16:44:20 2018 H 15.6 P 27.117 D 99.2 999.0 999.0 999.0 999.0 999.0 999.0 999.0 999.0 20.0 20.0 20.0 20.0 20.3 20.2 20.1 20.1 999.0 999.0 999.0 999.0 3.3 999.0 999.0 999.0 999.0 999.0 999.0 999.0 999.0 999.0 999.0 999.0 9.5 999.0 1.0 2.0 3.0 4.0 5.0 6.0 7.0 8.0 9.0 10.0 11.0 12.0 13.0 14.0 15.0 16.0 
Tue Jun 19 16:49:21 2018 H 15.6 P 27.350 D 99.2 999.0 999.0 999.0 999.0 999.0 999.0 999.0 999.0 20.3 20.2 20.1 20.2 20.3 20.3 20.1 20.3 999.0 999.0 999.0 999.0 999.0 999.0 999.0 999.0 999.0 999.0 999.0 999.0 999.0 999.0 999.0 999.0 9.5 999.0 1.0 2.0 3.0 4.0 5.0 6.0 7.0 8.0 9.0 10.0 11.0 12.0 13.0 14.0 15.0 16.0 
Tue Jun 19 16:54:21 2018 H 16.4 P 27.117 D 99.2 999.0 999.0 999.0 999.0 999.0 999.0 999.0 999.0 19.8 19.9 19.8 19.9 20.0 20.0 19.9 20.0 999.0 999.0 999.0 999.0 999.0 999.0 999.0 999.0 999.0 999.0 999.0 999.0 999.0 999.0 999.0 999.0 9.5 999.0 1.0 2.0 3.0 4.0 5.0 6.0 7.0 8.0 9.0 10.0 11.0 12.0 13.0 14.0 15.0 16.0 
Tue Jun 19 16:59:21 2018 H 15.0 P 27.933 D 99.2 999.0 999.0 999.0 999.0 999.0 999.0 999.0 999.0 20.0 20.0 20.0 20.0 20.1 20.0 19.9 20.0 999.0 999.0 999.0 999.0 999.0 999.0 999.0 999.0 999.0 999.0 999.0 999.0 999.0 999.0 999.0 999.0 9.5 999.0 1.0 2.0 3.0 4.0 5.0 6.0 7.0 8.0 9.0 10.0 11.0 12.0 13.0 14.0 15.0 16.0 
Tue Jun 19 17:04:21 2018 H 15.4 P 27.500 D 99.2 999.0 999.0 999.0 999.0 999.0 999.0 999.0 999.0 20.2 20.1 20.1 20.1 20.2 20.2 20.1 20.1 999.0 999.0 999.0 999.0 999.0 999.0 999.0 999.0 999.0 999.0 999.0 999.0 999.0 999.0 999.0 999.0 9.5 999.0 1.0 2.0 3.0 4.0 5.0 6.0 7.0 8.0 9.0 10.0 11.0 12.0 13.0 14.0 15.0 16.0 

                                Probe  Dew                                                                                                                                                                                                         Set   Flow 
    Date   Time             Humid    Amb   Point    NIB   EIB   SIB   WIB   NOB   EOB   SOB   WOB   NIT   EIT   SIT   WIT   NOT   EOT   SOT   WOT   STS   MHS   MHW   COS   COW   CIB   CIM   CIT   DBS   TSB   TSM   TST   HXI   HXO   HXA   HXD Point Rate   NTT   ETT   WTT   STT   NTB   ETB   WTB   STB   TRS   TRW   CSI   CSO   PCI   PCO   CCI   CCO
Explanation of codes.
These data are provided for the convenience of observers at Kitt Peak. The instruments are not calibrated and the values should be considered as indicative only.

dougw@noao.edu